| time (UTC) | temp C | wind direction | speed KPH | gust KPH | rain 1hr cm | rain 24hr cm | rain mn cm | humidity % | barometer mb |
| 20260906165802 | 23 | 104 | 3.2 | 11.3 | 0.00 | 0.00 | 0.00 | 76 | 1019.0 |
| 20260906165301 | 23 | 100 | 3.2 | 9.7 | 0.00 | 0.00 | 0.00 | 77 | 1019.1 |
| 20260906164801 | 23 | 101 | 3.2 | 9.7 | 0.00 | 0.00 | 0.00 | 77 | 1019.2 |
| 20260906164301 | 23 | 97 | 3.2 | 6.4 | 0.00 | 0.00 | 0.00 | 77 | 1019.3 |
| 20260906163803 | 23 | 107 | 1.6 | 9.7 | 0.00 | 0.00 | 0.00 | 78 | 1019.4 |
| 20260906163302 | 22 | 74 | 1.6 | 9.7 | 0.00 | 0.00 | 0.00 | 77 | 1019.3 |
| 20260906162802 | 22 | 81 | 1.6 | 6.4 | 0.00 | 0.00 | 0.00 | 80 | 1019.3 |
| 20260906162608 | 22 | 80 | 1.6 | 8.0 | 0.00 | 0.00 | 0.00 | 81 | 1019.3 |
| 20260906161802 | 22 | 160 | 1.6 | 8.0 | 0.00 | 0.00 | 0.00 | 79 | 1019.4 |
| 20260906161302 | 22 | 87 | 3.2 | 6.4 | 0.00 | 0.00 | 0.00 | 80 | 1019.4 |
| 20260906160803 | 22 | 78 | 1.6 | 4.8 | 0.00 | 0.00 | 0.00 | 80 | 1019.4 |
| 20260906160436 | 21 | 140 | 1.6 | 4.8 | 0.00 | 0.00 | 0.00 | 81 | 1019.5 |
| 20260906160358 | 22 | 141 | 1.6 | 4.8 | 0.00 | 0.00 | 0.00 | 83 | 1019.5 |
| 20260906155618 | 21 | 105 | 1.6 | 6.4 | 0.00 | 0.00 | 0.00 | 82 | 1019.5 |
| 20260906154803 | 21 | 105 | 3.2 | 6.4 | 0.00 | 0.00 | 0.00 | 82 | 1019.5 |
| 20260906154305 | 21 | 107 | 3.2 | 6.4 | 0.00 | 0.00 | 0.00 | 82 | 1019.6 |
| 20260906154120 | 21 | 101 | 1.6 | 6.4 | 0.00 | 0.00 | 0.00 | 83 | 1019.4 |
| 20260906153303 | 21 | 109 | 1.6 | 9.7 | 0.00 | 0.00 | 0.00 | 83 | 1019.5 |
| 20260906153120 | 21 | 109 | 3.2 | 9.7 | 0.00 | 0.00 | 0.00 | 85 | 1019.5 |
| 20260906152306 | 21 | 103 | 3.2 | 9.7 | 0.00 | 0.00 | 0.00 | 85 | 1019.4 |
| 20260906151946 | 20 | 125 | 1.6 | 6.4 | 0.00 | 0.00 | 0.00 | 85 | 1019.4 |
| 20260906151903 | 21 | 98 | 3.2 | 9.7 | 0.00 | 0.00 | 0.00 | 85 | 1019.4 |
| 20260906150803 | 20 | 68 | 1.6 | 9.7 | 0.00 | 0.00 | 0.00 | 87 | 1019.4 |
| 20260906150304 | 20 | 98 | 3.2 | 9.7 | 0.00 | 0.00 | 0.00 | 89 | 1019.4 |
| 20260906150117 | 20 | 98 | 3.2 | 9.7 | 0.00 | 0.00 | 0.00 | 89 | 1019.4 |
| 20260906145306 | 20 | 72 | 3.2 | 9.7 | 0.00 | 0.00 | 0.00 | 90 | 1019.2 |
| 20260906144804 | 20 | 99 | 1.6 | 6.4 | 0.00 | 0.00 | 0.00 | 91 | 1019.2 |
| 20260906144303 | 19 | 101 | 1.6 | 6.4 | 0.00 | 0.00 | 0.00 | 91 | 1019.1 |
| 20260906143804 | 19 | 105 | 0.0 | 0.0 | 0.00 | 0.00 | 0.00 | 93 | 1019.1 |
| 20260906143303 | 19 | 109 | 0.0 | 3.2 | 0.00 | 0.00 | 0.00 | 93 | 1019.1 |
| 20260906142803 | 19 | 109 | 1.6 | 4.8 | 0.00 | 0.00 | 0.00 | 93 | 1019.1 |
| 20260906142306 | 19 | 109 | 1.6 | 4.8 | 0.00 | 0.00 | 0.00 | 93 | 1019.1 |
| 20260906141803 | 19 | 109 | 3.2 | 9.7 | 0.00 | 0.00 | 0.00 | 94 | 1019.0 |
| 20260906141301 | 19 | 100 | 3.2 | 9.7 | 0.00 | 0.00 | 0.00 | 94 | 1019.0 |
| 20260906140803 | 19 | 103 | 3.2 | 9.7 | 0.00 | 0.00 | 0.00 | 95 | 1018.9 |
| 20260906140302 | 19 | 97 | 1.6 | 6.4 | 0.00 | 0.00 | 0.00 | 96 | 1018.9 |
| 20260906135802 | 19 | 110 | 3.2 | 9.7 | 0.00 | 0.00 | 0.00 | 96 | 1019.0 |
| 20260906135306 | 18 | 96 | 1.6 | 9.7 | 0.00 | 0.00 | 0.00 | 96 | 1019.1 |
| 20260906134803 | 19 | 100 | 0.0 | 9.7 | 0.00 | 0.00 | 0.00 | 96 | 1019.0 |
| 20260906134303 | 18 | 107 | 1.6 | 6.4 | 0.00 | 0.00 | 0.00 | 96 | 1019.1 |
| 20260906133803 | 18 | 103 | 1.6 | 6.4 | 0.00 | 0.00 | 0.00 | 96 | 1019.1 |
| 20260906133613 | 18 | 130 | 1.6 | 4.8 | 0.00 | 0.00 | 0.00 | 96 | 1019.0 |
| 20260906132856 | 18 | 105 | 0.0 | 3.2 | 0.00 | 0.00 | 0.00 | 96 | 1019.1 |
| 20260906131802 | 18 | 105 | 1.6 | 4.8 | 0.00 | 0.00 | 0.00 | 96 | 1019.3 |
| 20260906131303 | 18 | 105 | 1.6 | 4.8 | 0.00 | 0.00 | 0.00 | 96 | 1019.2 |
| 20260906130802 | 18 | 105 | 1.6 | 4.8 | 0.00 | 0.00 | 0.00 | 96 | 1019.1 |
| 20260906130304 | 18 | 117 | 0.0 | 0.0 | 0.00 | 0.00 | 0.00 | 96 | 1019.1 |
| 20260906125804 | 18 | 117 | 0.0 | 0.0 | 0.00 | 0.00 | 0.00 | 96 | 1019.0 |
| 20260906125305 | 18 | 117 | 0.0 | 1.6 | 0.00 | 0.00 | 0.00 | 96 | 1019.0 |
| 20260906124802 | 18 | 117 | 0.0 | 3.2 | 0.00 | 0.00 | 0.00 | 96 | 1019.0 |
| 20260906124302 | 18 | 99 | 0.0 | 3.2 | 0.00 | 0.00 | 0.00 | 96 | 1019.0 |
| 20260906123802 | 18 | 99 | 1.6 | 4.8 | 0.00 | 0.00 | 0.00 | 96 | 1019.0 |
| 20260906123303 | 18 | 99 | 1.6 | 4.8 | 0.00 | 0.00 | 0.00 | 96 | 1019.0 |
| 20260906122804 | 18 | 99 | 1.6 | 6.4 | 0.00 | 0.00 | 0.00 | 96 | 1019.0 |
| 20260906122306 | 18 | 101 | 1.6 | 6.4 | 0.00 | 0.00 | 0.00 | 96 | 1019.0 |
| 20260906121931 | 18 | 99 | 1.6 | 4.8 | 0.00 | 0.00 | 0.00 | 96 | 1018.8 |
| 20260906121853 | 18 | 99 | 0.0 | 3.2 | 0.00 | 0.00 | 0.00 | 96 | 1018.9 |
| 20260906120803 | 18 | 99 | 1.6 | 4.8 | 0.00 | 0.00 | 0.00 | 96 | 1018.7 |
| 20260906120303 | 18 | 96 | 0.0 | 4.8 | 0.00 | 0.00 | 0.00 | 96 | 1018.6 |
| 20260906115803 | 18 | 96 | 0.0 | 3.2 | 0.00 | 0.00 | 0.00 | 96 | 1018.4 |
| 20260906115306 | 18 | 96 | 0.0 | 4.8 | 0.00 | 0.00 | 0.00 | 96 | 1018.4 |
| 20260906114827 | 18 | 96 | 1.6 | 4.8 | 0.00 | 0.00 | 0.00 | 96 | 1018.2 |
| 20260906114442 | 18 | 96 | 0.0 | 3.2 | 0.00 | 0.00 | 0.00 | 96 | 1018.1 |
| 20260906112803 | 18 | 86 | 1.6 | 6.4 | 0.00 | 0.00 | 0.00 | 96 | 1017.9 |
| 20260906112301 | 18 | 71 | 0.0 | 3.2 | 0.00 | 0.00 | 0.00 | 96 | 1017.9 |
| 20260906112111 | 18 | 71 | 0.0 | 3.2 | 0.00 | 0.00 | 0.00 | 96 | 1017.9 |
| 20260906111257 | 18 | 71 | 0.0 | 3.2 | 0.00 | 0.00 | 0.00 | 96 | 1017.9 |
| 20260906110756 | 18 | 71 | 1.6 | 3.2 | 0.00 | 0.00 | 0.00 | 96 | 1017.9 |
| 20260906110254 | 18 | 71 | 3.2 | 6.4 | 0.00 | 0.00 | 0.00 | 96 | 1017.8 |
| 20260906105751 | 18 | 71 | 3.2 | 6.4 | 0.00 | 0.00 | 0.00 | 96 | 1017.7 |
| 20260906105250 | 18 | 81 | 3.2 | 4.8 | 0.00 | 0.00 | 0.00 | 96 | 1017.9 |
| 20260906104751 | 18 | 81 | 3.2 | 6.4 | 0.00 | 0.00 | 0.00 | 96 | 1017.9 |
| 20260906104249 | 18 | 81 | 3.2 | 6.4 | 0.00 | 0.00 | 0.00 | 96 | 1017.9 |
| 20260906103747 | 18 | 91 | 3.2 | 6.4 | 0.00 | 0.00 | 0.00 | 96 | 1017.8 |
| 20260906103244 | 17 | 82 | 4.8 | 6.4 | 0.00 | 0.00 | 0.00 | 95 | 1017.9 |
| 20260906102743 | 17 | 87 | 4.8 | 9.7 | 0.00 | 0.00 | 0.00 | 95 | 1017.8 |
| 20260906102242 | 17 | 89 | 4.8 | 9.7 | 0.00 | 0.00 | 0.00 | 95 | 1017.7 |
| 20260906101741 | 18 | 67 | 4.8 | 8.0 | 0.00 | 0.00 | 0.00 | 95 | 1017.6 |
| 20260906101547 | 18 | 73 | 3.2 | 6.4 | 0.00 | 0.00 | 0.00 | 95 | 1017.5 |
| 20260906100742 | 18 | 97 | 3.2 | 6.4 | 0.00 | 0.00 | 0.00 | 95 | 1017.4 |
| 20260906100556 | 18 | 97 | 3.2 | 6.4 | 0.00 | 0.00 | 0.00 | 95 | 1017.3 |
| 20260906095743 | 18 | 97 | 1.6 | 6.4 | 0.00 | 0.00 | 0.00 | 95 | 1017.2 |
| 20260906095240 | 18 | 95 | 1.6 | 4.8 | 0.00 | 0.00 | 0.00 | 95 | 1017.0 |
| 20260906095047 | 18 | 94 | 1.6 | 4.8 | 0.00 | 0.00 | 0.00 | 95 | 1017.0 |
| 20260906094243 | 18 | 94 | 0.0 | 3.2 | 0.00 | 0.00 | 0.00 | 95 | 1017.1 |
| 20260906093741 | 18 | 94 | 0.0 | 1.6 | 0.00 | 0.00 | 0.00 | 95 | 1017.1 |
| 20260906093241 | 18 | 94 | 0.0 | 4.8 | 0.00 | 0.00 | 0.00 | 95 | 1017.1 |
| 20260906092737 | 18 | 94 | 1.6 | 6.4 | 0.00 | 0.00 | 0.00 | 95 | 1017.2 |
| 20260906092533 | 18 | 94 | 3.2 | 6.4 | 0.00 | 0.00 | 0.00 | 95 | 1017.1 |
| 20260906092043 | 18 | 94 | 3.2 | 6.4 | 0.00 | 0.00 | 0.00 | 95 | 1017.1 |
| 20260906091233 | 18 | 103 | 3.2 | 8.0 | 0.00 | 0.00 | 0.00 | 95 | 1017.0 |
| 20260906090732 | 18 | 70 | 3.2 | 6.4 | 0.00 | 0.00 | 0.00 | 95 | 1017.2 |
| 20260906090233 | 18 | 71 | 3.2 | 8.0 | 0.00 | 0.00 | 0.00 | 95 | 1017.3 |
| 20260906085730 | 18 | 71 | 3.2 | 8.0 | 0.00 | 0.00 | 0.00 | 95 | 1017.4 |
| 20260906085229 | 18 | 91 | 3.2 | 6.4 | 0.00 | 0.00 | 0.00 | 95 | 1017.4 |
| 20260906084731 | 18 | 92 | 3.2 | 6.4 | 0.00 | 0.00 | 0.00 | 95 | 1017.4 |
| 20260906084228 | 18 | 101 | 1.6 | 6.4 | 0.00 | 0.00 | 0.00 | 94 | 1017.4 |
| 20260906083725 | 18 | 90 | 0.0 | 4.8 | 0.00 | 0.00 | 0.00 | 94 | 1017.4 |
| 20260906083223 | 18 | 90 | 0.0 | 4.8 | 0.00 | 0.00 | 0.00 | 94 | 1017.4 |
| 20260906082722 | 18 | 90 | 0.0 | 4.8 | 0.00 | 0.00 | 0.00 | 94 | 1017.4 |
| 20260906082222 | 18 | 77 | 0.0 | 0.0 | 0.00 | 0.00 | 0.00 | 94 | 1017.4 |
| 20260906081722 | 18 | 77 | 0.0 | 0.0 | 0.00 | 0.00 | 0.00 | 94 | 1017.4 |
| 20260906081219 | 18 | 77 | 0.0 | 0.0 | 0.00 | 0.00 | 0.00 | 94 | 1017.6 |
| 20260906080717 | 18 | 77 | 0.0 | 0.0 | 0.00 | 0.00 | 0.00 | 94 | 1017.6 |
| 20260906080216 | 18 | 77 | 0.0 | 0.0 | 0.00 | 0.00 | 0.00 | 94 | 1017.5 |
| 20260906075716 | 18 | 77 | 0.0 | 0.0 | 0.00 | 0.00 | 0.00 | 94 | 1017.6 |
| 20260906075215 | 18 | 77 | 0.0 | 0.0 | 0.00 | 0.00 | 0.00 | 94 | 1017.6 |
| 20260906074713 | 18 | 77 | 0.0 | 0.0 | 0.00 | 0.00 | 0.00 | 94 | 1017.6 |
| 20260906074214 | 18 | 77 | 0.0 | 0.0 | 0.00 | 0.00 | 0.00 | 94 | 1017.5 |
| 20260906073714 | 18 | 77 | 0.0 | 0.0 | 0.00 | 0.00 | 0.00 | 94 | 1017.4 |
| 20260906073214 | 18 | 77 | 0.0 | 0.0 | 0.00 | 0.00 | 0.00 | 94 | 1017.4 |
| 20260906072713 | 18 | 77 | 0.0 | 3.2 | 0.00 | 0.00 | 0.00 | 94 | 1017.3 |
| 20260906072213 | 18 | 77 | 0.0 | 3.2 | 0.00 | 0.00 | 0.00 | 93 | 1017.4 |
| 20260906072022 | 19 | 77 | 0.0 | 3.2 | 0.00 | 0.00 | 0.00 | 93 | 1017.5 |
| 20260906071213 | 19 | 77 | 1.6 | 4.8 | 0.00 | 0.00 | 0.00 | 94 | 1017.6 |
| 20260906070711 | 19 | 77 | 3.2 | 6.4 | 0.00 | 0.00 | 0.00 | 94 | 1017.6 |
| 20260906070212 | 19 | 77 | 3.2 | 8.0 | 0.00 | 0.00 | 0.00 | 94 | 1017.7 |
| 20260906070019 | 19 | 77 | 3.2 | 8.0 | 0.00 | 0.00 | 0.00 | 94 | 1017.7 |
| 20260906065212 | 19 | 77 | 4.8 | 8.0 | 0.00 | 0.00 | 0.00 | 94 | 1017.7 |
| 20260906065014 | 19 | 77 | 4.8 | 8.0 | 0.00 | 0.00 | 0.00 | 94 | 1017.8 |
| 20260906064209 | 19 | 88 | 4.8 | 8.0 | 0.00 | 0.00 | 0.00 | 94 | 1017.8 |
| 20260906063710 | 19 | 80 | 3.2 | 8.0 | 0.00 | 0.00 | 0.00 | 94 | 1017.8 |
| 20260906063210 | 19 | 74 | 3.2 | 6.4 | 0.00 | 0.00 | 0.00 | 94 | 1018.0 |
| 20260906062709 | 19 | 74 | 1.6 | 6.4 | 0.00 | 0.00 | 0.00 | 94 | 1017.8 |
| 20260906062206 | 19 | 102 | 0.0 | 0.0 | 0.00 | 0.00 | 0.00 | 93 | 1017.8 |
| 20260906061707 | 19 | 102 | 0.0 | 0.0 | 0.00 | 0.00 | 0.00 | 92 | 1017.7 |
| 20260906061323 | 19 | 102 | 0.0 | 0.0 | 0.00 | 0.00 | 0.00 | 93 | 1017.6 |
| 20260906061258 | 19 | 102 | 0.0 | 0.0 | 0.00 | 0.00 | 0.00 | 93 | 1017.7 |
| 20260906060504 | 19 | 102 | 0.0 | 0.0 | 0.00 | 0.00 | 0.00 | 93 | 1017.6 |
| 20260906055702 | 20 | 102 | 0.0 | 0.0 | 0.00 | 0.00 | 0.00 | 93 | 1017.5 |
| 20260906055203 | 20 | 102 | 0.0 | 0.0 | 0.00 | 0.00 | 0.00 | 93 | 1017.5 |
| 20260906055001 | 19 | 102 | 0.0 | 0.0 | 0.00 | 0.00 | 0.00 | 93 | 1017.4 |
| 20260906054313 | 20 | 102 | 0.0 | 0.0 | 0.00 | 0.00 | 0.00 | 92 | 1017.4 |
| 20260906054250 | 19 | 102 | 0.0 | 0.0 | 0.00 | 0.00 | 0.00 | 92 | 1017.5 |
| 20260906053501 | 20 | 102 | 0.0 | 0.0 | 0.00 | 0.00 | 0.00 | 92 | 1017.4 |
| 20260906052702 | 20 | 102 | 0.0 | 0.0 | 0.00 | 0.00 | 0.00 | 92 | 1017.5 |
| 20260906052202 | 20 | 102 | 0.0 | 0.0 | 0.00 | 0.00 | 0.00 | 93 | 1017.4 |
| 20260906051958 | 20 | 102 | 0.0 | 0.0 | 0.00 | 0.00 | 0.00 | 93 | 1017.4 |
| 20260906051201 | 20 | 102 | 0.0 | 1.6 | 0.00 | 0.00 | 0.00 | 92 | 1017.4 |
| 20260906050701 | 20 | 102 | 1.6 | 4.8 | 0.00 | 0.00 | 0.00 | 92 | 1017.4 |
| 20260906050205 | 20 | 102 | 0.0 | 4.8 | 0.00 | 0.00 | 0.00 | 92 | 1017.3 |
| 20260906045827 | 20 | 74 | 0.0 | 0.0 | 0.00 | 0.00 | 0.00 | 92 | 1017.3 |
| 20260906045754 | 20 | 74 | 0.0 | 0.0 | 0.00 | 0.00 | 0.00 | 92 | 1017.3 |
| 20260906044703 | 20 | 74 | 0.0 | 0.0 | 0.00 | 0.00 | 0.00 | 92 | 1017.4 |
| 20260906044203 | 20 | 74 | 0.0 | 0.0 | 0.00 | 0.00 | 0.00 | 92 | 1017.5 |
| 20260906043703 | 20 | 74 | 0.0 | 0.0 | 0.00 | 0.00 | 0.00 | 91 | 1017.6 |
| 20260906043204 | 20 | 74 | 0.0 | 0.0 | 0.00 | 0.00 | 0.00 | 91 | 1017.6 |
| 20260906042705 | 20 | 74 | 0.0 | 0.0 | 0.00 | 0.00 | 0.00 | 91 | 1017.7 |
| 20260906042204 | 20 | 74 | 0.0 | 0.0 | 0.00 | 0.00 | 0.00 | 91 | 1017.7 |
| 20260906041704 | 20 | 74 | 0.0 | 0.0 | 0.00 | 0.00 | 0.00 | 90 | 1017.7 |
| 20260906041204 | 21 | 74 | 0.0 | 0.0 | 0.00 | 0.00 | 0.00 | 90 | 1017.7 |
| 20260906040703 | 21 | 74 | 0.0 | 0.0 | 0.00 | 0.00 | 0.00 | 90 | 1017.6 |
| 20260906040516 | 21 | 74 | 0.0 | 0.0 | 0.00 | 0.00 | 0.00 | 90 | 1017.5 |
| 20260906035703 | 21 | 74 | 0.0 | 1.6 | 0.00 | 0.00 | 0.00 | 90 | 1017.4 |
| 20260906035455 | 21 | 74 | 0.0 | 1.6 | 0.00 | 0.00 | 0.00 | 90 | 1017.3 |
| 20260906034704 | 21 | 74 | 0.0 | 1.6 | 0.00 | 0.00 | 0.00 | 90 | 1017.3 |
| 20260906034204 | 21 | 74 | 1.6 | 4.8 | 0.00 | 0.00 | 0.00 | 90 | 1017.3 |
| 20260906033704 | 21 | 74 | 3.2 | 4.8 | 0.00 | 0.00 | 0.00 | 90 | 1017.1 |
| 20260906033205 | 21 | 74 | 3.2 | 6.4 | 0.00 | 0.00 | 0.00 | 90 | 1017.0 |
| 20260906032704 | 21 | 74 | 3.2 | 6.4 | 0.00 | 0.00 | 0.00 | 89 | 1016.9 |
| 20260906032203 | 21 | 74 | 3.2 | 8.0 | 0.00 | 0.00 | 0.00 | 89 | 1016.9 |
| 20260906031703 | 21 | 76 | 3.2 | 8.0 | 0.00 | 0.00 | 0.00 | 89 | 1016.8 |
| 20260906031203 | 21 | 86 | 3.2 | 4.8 | 0.00 | 0.00 | 0.00 | 89 | 1016.8 |
| 20260906030703 | 21 | 86 | 3.2 | 6.4 | 0.00 | 0.00 | 0.00 | 89 | 1016.7 |
| 20260906030513 | 21 | 86 | 3.2 | 6.4 | 0.00 | 0.00 | 0.00 | 89 | 1016.6 |
| 20260906030014 | 21 | 92 | 1.6 | 6.4 | 0.00 | 0.00 | 0.00 | 89 | 1016.5 |
| 20260906025204 | 21 | 92 | 1.6 | 4.8 | 0.00 | 0.00 | 0.00 | 89 | 1016.4 |
| 20260906024702 | 21 | 96 | 1.6 | 6.4 | 0.00 | 0.00 | 0.00 | 89 | 1016.3 |
| 20260906024203 | 21 | 96 | 3.2 | 6.4 | 0.00 | 0.00 | 0.00 | 89 | 1016.3 |
| 20260906023702 | 21 | 84 | 3.2 | 4.8 | 0.00 | 0.00 | 0.00 | 89 | 1016.2 |
| 20260906023202 | 22 | 94 | 3.2 | 4.8 | 0.00 | 0.00 | 0.00 | 88 | 1016.3 |
| 20260906022701 | 22 | 101 | 1.6 | 3.2 | 0.00 | 0.00 | 0.00 | 88 | 1016.3 |
| 20260906022202 | 22 | 101 | 1.6 | 4.8 | 0.00 | 0.00 | 0.00 | 88 | 1016.2 |
| 20260906021702 | 22 | 101 | 3.2 | 4.8 | 0.00 | 0.00 | 0.00 | 87 | 1016.2 |
| 20260906021202 | 22 | 101 | 1.6 | 4.8 | 0.00 | 0.00 | 0.00 | 87 | 1016.1 |
| 20260906020702 | 22 | 101 | 1.6 | 4.8 | 0.00 | 0.00 | 0.00 | 86 | 1016.0 |
| 20260906020202 | 22 | 101 | 3.2 | 6.4 | 0.00 | 0.00 | 0.00 | 86 | 1016.0 |
| 20260906015703 | 22 | 101 | 1.6 | 6.4 | 0.00 | 0.00 | 0.00 | 85 | 1015.9 |
| 20260906015202 | 22 | 69 | 1.6 | 6.4 | 0.00 | 0.00 | 0.00 | 85 | 1015.8 |
| 20260906014702 | 22 | 69 | 3.2 | 11.3 | 0.00 | 0.00 | 0.00 | 85 | 1015.6 |
| 20260906014202 | 22 | 99 | 3.2 | 11.3 | 0.00 | 0.00 | 0.00 | 85 | 1015.4 |
| 20260906013703 | 22 | 93 | 3.2 | 6.4 | 0.00 | 0.00 | 0.00 | 85 | 1015.4 |
| 20260906013203 | 23 | 92 | 3.2 | 6.4 | 0.00 | 0.00 | 0.00 | 84 | 1015.4 |
| 20260906012702 | 23 | 92 | 3.2 | 6.4 | 0.00 | 0.00 | 0.00 | 84 | 1015.2 |
| 20260906012203 | 23 | 82 | 3.2 | 12.9 | 0.00 | 0.00 | 0.00 | 84 | 1015.0 |
| 20260906011702 | 23 | 104 | 3.2 | 12.9 | 0.00 | 0.00 | 0.00 | 83 | 1015.0 |
| 20260906011202 | 23 | 91 | 1.6 | 6.4 | 0.00 | 0.00 | 0.00 | 83 | 1014.9 |
| 20260906010702 | 23 | 98 | 3.2 | 6.4 | 0.00 | 0.00 | 0.00 | 83 | 1014.9 |
| 20260906010512 | 23 | 103 | 3.2 | 6.4 | 0.00 | 0.00 | 0.00 | 82 | 1014.7 |
| 20260906005705 | 23 | 107 | 1.6 | 6.4 | 0.00 | 0.00 | 0.00 | 82 | 1014.7 |
| 20260906005204 | 23 | 63 | 1.6 | 4.8 | 0.00 | 0.00 | 0.00 | 82 | 1014.7 |
| 20260906004812 | 23 | 63 | 1.6 | 4.8 | 0.00 | 0.00 | 0.00 | 82 | 1014.6 |
| 20260906004748 | 23 | 63 | 1.6 | 4.8 | 0.00 | 0.00 | 0.00 | 82 | 1014.6 |
| 20260906003702 | 23 | 77 | 1.6 | 4.8 | 0.00 | 0.00 | 0.00 | 82 | 1014.6 |
| 20260906003507 | 23 | 78 | 1.6 | 4.8 | 0.00 | 0.00 | 0.00 | 82 | 1014.6 |
| 20260906002703 | 23 | 78 | 1.6 | 4.8 | 0.00 | 0.00 | 0.00 | 82 | 1014.5 |
| 20260906002203 | 23 | 64 | 1.6 | 4.8 | 0.00 | 0.00 | 0.00 | 82 | 1014.5 |
| 20260906001700 | 23 | 69 | 1.6 | 6.4 | 0.00 | 0.00 | 0.00 | 83 | 1014.5 |
| 20260906001512 | 23 | 69 | 1.6 | 6.4 | 0.00 | 0.00 | 0.00 | 83 | 1014.5 |
| 20260906001015 | 23 | 69 | 1.6 | 4.8 | 0.00 | 0.00 | 0.00 | 84 | 1014.5 |
| 20260906000159 | 24 | 31 | 0.0 | 4.8 | 0.00 | 0.00 | 0.00 | 84 | 1014.7 |
| 20260905235656 | 24 | 30 | 0.0 | 0.0 | 0.00 | 0.00 | 0.00 | 83 | 1014.7 |
| 20260905235156 | 24 | 17 | 0.0 | 0.0 | 0.00 | 0.00 | 0.00 | 83 | 1014.7 |
| 20260905234657 | 24 | 17 | 0.0 | 0.0 | 0.00 | 0.00 | 0.00 | 83 | 1014.7 |
| 20260905234506 | 24 | 17 | 0.0 | 3.2 | 0.00 | 0.00 | 0.00 | 82 | 1014.7 |
| 20260905234109 | 24 | 17 | 1.6 | 4.8 | 0.00 | 0.00 | 0.00 | 82 | 1014.8 |
| 20260905234055 | 24 | 17 | 1.6 | 4.8 | 0.00 | 0.00 | 0.00 | 82 | 1014.7 |
| 20260905232650 | 24 | 341 | 0.0 | 0.0 | 0.00 | 0.00 | 0.00 | 83 | 1014.8 |
| 20260905232149 | 24 | 341 | 0.0 | 0.0 | 0.00 | 0.00 | 0.00 | 82 | 1015.0 |
| 20260905231650 | 25 | 341 | 0.0 | 0.0 | 0.00 | 0.00 | 0.00 | 82 | 1015.0 |
| 20260905231151 | 25 | 341 | 0.0 | 0.0 | 0.00 | 0.00 | 0.00 | 82 | 1015.1 |
| 20260905230953 | 25 | 341 | 0.0 | 0.0 | 0.00 | 0.00 | 0.00 | 81 | 1015.1 |
| 20260905230146 | 25 | 341 | 0.0 | 0.0 | 0.00 | 0.00 | 0.00 | 81 | 1015.1 |
| 20260905225645 | 25 | 341 | 0.0 | 0.0 | 0.00 | 0.00 | 0.00 | 81 | 1015.1 |
| 20260905225143 | 25 | 341 | 0.0 | 0.0 | 0.00 | 0.00 | 0.00 | 82 | 1015.1 |
| 20260905224944 | 25 | 341 | 0.0 | 0.0 | 0.00 | 0.00 | 0.00 | 82 | 1015.1 |
| 20260905224139 | 25 | 341 | 0.0 | 0.0 | 0.00 | 0.00 | 0.00 | 82 | 1015.0 |
| 20260905223640 | 25 | 341 | 0.0 | 0.0 | 0.00 | 0.00 | 0.00 | 80 | 1015.1 |
| 20260905223443 | 25 | 341 | 0.0 | 0.0 | 0.00 | 0.00 | 0.00 | 80 | 1015.2 |
| 20260905222944 | 25 | 341 | 0.0 | 0.0 | 0.00 | 0.00 | 0.00 | 79 | 1015.2 |
| 20260905222141 | 25 | 341 | 0.0 | 0.0 | 0.00 | 0.00 | 0.00 | 79 | 1015.1 |
| 20260905221639 | 25 | 341 | 0.0 | 0.0 | 0.00 | 0.00 | 0.00 | 79 | 1015.2 |
| 20260905221144 | 25 | 341 | 0.0 | 0.0 | 0.00 | 0.00 | 0.00 | 78 | 1015.1 |
| 20260905220639 | 26 | 341 | 0.0 | 0.0 | 0.00 | 0.00 | 0.00 | 77 | 1015.2 |
| 20260905220136 | 26 | 341 | 0.0 | 0.0 | 0.00 | 0.00 | 0.00 | 75 | 1015.2 |
| 20260905215638 | 26 | 341 | 0.0 | 0.0 | 0.00 | 0.00 | 0.00 | 76 | 1015.2 |
| 20260905215137 | 26 | 341 | 0.0 | 3.2 | 0.00 | 0.00 | 0.00 | 75 | 1015.2 |
| 20260905214635 | 26 | 341 | 1.6 | 3.2 | 0.00 | 0.00 | 0.00 | 76 | 1015.3 |
| 20260905214134 | 26 | 341 | 1.6 | 3.2 | 0.00 | 0.00 | 0.00 | 77 | 1015.4 |
| 20260905213633 | 26 | 341 | 1.6 | 3.2 | 0.00 | 0.00 | 0.00 | 78 | 1015.5 |
| 20260905213131 | 26 | 341 | 3.2 | 4.8 | 0.00 | 0.00 | 0.00 | 77 | 1015.5 |
| 20260905212631 | 26 | 341 | 3.2 | 4.8 | 0.00 | 0.00 | 0.00 | 78 | 1015.6 |
| 20260905212130 | 25 | 22 | 1.6 | 4.8 | 0.00 | 0.00 | 0.00 | 78 | 1015.7 |
| 20260905211631 | 25 | 35 | 1.6 | 6.4 | 0.00 | 0.00 | 0.00 | 78 | 1015.7 |
| 20260905211131 | 25 | 0 | 1.6 | 6.4 | 0.00 | 0.00 | 0.00 | 78 | 1015.6 |
| 20260905210631 | 25 | 37 | 0.0 | 3.2 | 0.00 | 0.00 | 0.00 | 78 | 1015.5 |
| 20260905210130 | 25 | 36 | 0.0 | 0.0 | 0.00 | 0.00 | 0.00 | 78 | 1015.5 |
| 20260905205630 | 25 | 36 | 0.0 | 4.8 | 0.00 | 0.00 | 0.00 | 80 | 1015.5 |
| 20260905205436 | 25 | 36 | 1.6 | 4.8 | 0.00 | 0.00 | 0.00 | 79 | 1015.6 |
| 20260905204631 | 25 | 36 | 1.6 | 4.8 | 0.00 | 0.00 | 0.00 | 81 | 1015.8 |
| 20260905204130 | 25 | 37 | 0.0 | 4.8 | 0.00 | 0.00 | 0.00 | 82 | 1015.8 |
| 20260905203634 | 25 | 85 | 0.0 | 0.0 | 0.00 | 0.00 | 0.00 | 82 | 1015.9 |
| 20260905203127 | 25 | 85 | 0.0 | 0.0 | 0.00 | 0.00 | 0.00 | 81 | 1015.9 |
| 20260905202622 | 25 | 85 | 0.0 | 6.4 | 0.00 | 0.00 | 0.00 | 83 | 1015.8 |
| 20260905202117 | 25 | 85 | 0.0 | 6.4 | 0.00 | 0.00 | 0.00 | 81 | 1015.8 |
| 20260905201617 | 24 | 85 | 1.6 | 6.4 | 0.00 | 0.00 | 0.00 | 82 | 1015.8 |
| 20260905201118 | 24 | 85 | 3.2 | 6.4 | 0.00 | 0.00 | 0.00 | 82 | 1015.6 |
| 20260905200622 | 24 | 92 | 3.2 | 6.4 | 0.00 | 0.00 | 0.00 | 82 | 1015.7 |
| 20260905200117 | 24 | 100 | 1.6 | 9.7 | 0.00 | 0.00 | 0.00 | 82 | 1015.8 |
| 20260905195618 | 25 | 101 | 0.0 | 9.7 | 0.00 | 0.00 | 0.00 | 82 | 1015.9 |
| 20260905195116 | 25 | 5 | 0.0 | 0.0 | 0.00 | 0.00 | 0.00 | 81 | 1015.9 |
| 20260905194616 | 25 | 5 | 0.0 | 0.0 | 0.00 | 0.00 | 0.00 | 82 | 1016.0 |
| 20260905194116 | 24 | 5 | 0.0 | 0.0 | 0.00 | 0.00 | 0.00 | 82 | 1016.0 |
| 20260905193615 | 24 | 5 | 0.0 | 0.0 | 0.00 | 0.00 | 0.00 | 83 | 1016.0 |
| 20260905193112 | 24 | 5 | 0.0 | 0.0 | 0.00 | 0.00 | 0.00 | 82 | 1016.0 |
| 20260905192734 | 24 | 38 | 0.0 | 4.8 | 0.00 | 0.00 | 0.00 | 83 | 1016.2 |
| 20260905192704 | 24 | 0 | 0.0 | 0.0 | 0.00 | 0.00 | 0.00 | 83 | 1016.1 |
| 20260905191609 | 24 | 38 | 1.6 | 4.8 | 0.00 | 0.00 | 0.00 | 83 | 1016.1 |
| 20260905191109 | 24 | 38 | 3.2 | 6.4 | 0.00 | 0.00 | 0.00 | 84 | 1016.0 |
| 20260905190610 | 24 | 68 | 3.2 | 8.0 | 0.00 | 0.00 | 0.00 | 84 | 1015.9 |
| 20260905190109 | 24 | 75 | 3.2 | 8.0 | 0.00 | 0.00 | 0.00 | 84 | 1015.9 |
| 20260905185608 | 24 | 63 | 3.2 | 8.0 | 0.00 | 0.00 | 0.00 | 85 | 1016.0 |
| 20260905185108 | 24 | 62 | 4.8 | 9.7 | 0.00 | 0.00 | 0.00 | 85 | 1016.0 |
| 20260905184607 | 24 | 28 | 4.8 | 9.7 | 0.00 | 0.00 | 0.00 | 86 | 1016.0 |
| 20260905184411 | 24 | 129 | 4.8 | 11.3 | 0.00 | 0.00 | 0.00 | 86 | 1015.9 |
| 20260905183904 | 24 | 50 | 6.4 | 14.5 | 0.00 | 0.00 | 0.00 | 86 | 1016.0 |
| 20260905183105 | 23 | 76 | 6.4 | 14.5 | 0.00 | 0.00 | 0.00 | 85 | 1016.1 |
| 20260905182607 | 23 | 79 | 6.4 | 12.9 | 0.00 | 0.00 | 0.00 | 85 | 1016.1 |
| 20260905182105 | 23 | 84 | 6.4 | 12.9 | 0.00 | 0.00 | 0.00 | 85 | 1016.2 |
| 20260905181605 | 23 | 88 | 6.4 | 12.9 | 0.00 | 0.00 | 0.00 | 85 | 1016.2 |
| 20260905181109 | 23 | 66 | 6.4 | 12.9 | 0.00 | 0.00 | 0.00 | 84 | 1016.1 |
| 20260905180609 | 23 | 74 | 4.8 | 12.9 | 0.00 | 0.00 | 0.00 | 85 | 1016.2 |
| 20260905180108 | 23 | 70 | 6.4 | 12.9 | 0.00 | 0.00 | 0.00 | 84 | 1016.3 |
| 20260905175608 | 24 | 76 | 6.4 | 12.9 | 0.00 | 0.00 | 0.00 | 84 | 1016.3 |
| 20260905175107 | 24 | 84 | 4.8 | 12.9 | 0.00 | 0.00 | 0.00 | 84 | 1016.3 |
| 20260905174609 | 24 | 85 | 6.4 | 12.9 | 0.00 | 0.00 | 0.00 | 85 | 1016.4 |
| 20260905174107 | 24 | 101 | 4.8 | 11.3 | 0.00 | 0.00 | 0.00 | 84 | 1016.4 |
| 20260905173917 | 24 | 80 | 3.2 | 11.3 | 0.00 | 0.00 | 0.00 | 86 | 1016.3 |
| 20260905173103 | 24 | 94 | 4.8 | 9.7 | 0.00 | 0.00 | 0.00 | 87 | 1016.4 |
| 20260905172603 | 23 | 75 | 4.8 | 9.7 | 0.00 | 0.00 | 0.00 | 86 | 1016.4 |
| 20260905172103 | 23 | 86 | 3.2 | 9.7 | 0.00 | 0.00 | 0.00 | 87 | 1016.4 |
| 20260905171602 | 23 | 87 | 4.8 | 11.3 | 0.00 | 0.00 | 0.00 | 87 | 1016.4 |
| 20260905171405 | 23 | 76 | 4.8 | 12.9 | 0.00 | 0.00 | 0.00 | 86 | 1016.4 |
| 20260905170603 | 23 | 77 | 4.8 | 12.9 | 0.00 | 0.00 | 0.00 | 87 | 1016.4 |
| 20260905170406 | 23 | 90 | 3.2 | 11.3 | 0.00 | 0.00 | 0.00 | 87 | 1016.5 |